GEESAT 4-10

导读

GEESAT 4-10是中国于2025年8月8日发射的低轨商业卫星,隶属吉利星座组网卫星序列。依托吉利商业航天全产业链能力打造,该卫星纳入吉利星座一期组网建设,助力完成中国首个规模化应用低轨卫星星座部署,将为全球提供高稳定卫星物联通信服务,同时支撑星基高精定位业务,服务智慧出行等多领域应用需求。

Basic Information
目录编号:
65128
目录名称:
GEESAT 4-10
国际标识:
2025-170K
轨道中心:
EARTH
卫星名称:
GEESAT 4-10
卫星全名:
GEESAT 4-10
卫星状态:
在轨 (已飞行399 天)
发射日期:
2025-08-08 UTC
国别 :
中国 (CN)
星等 :
--
This satellite is enrolled in the Space Conjunction Data Service (SCDS) and the current flight risk assessment level is: No High Risk
Orbit Information
数据来源 国际轨道数据 AOE轨道数据
星历时间 2026-09-11T12:17:37+0800
12小时前
查看轨道信息
2026-09-05T12:00:00+0800
6天前
查看轨道信息
半长轴 6999.911km 6999.952km
偏心率 0.0024525 0.0024421
轨道倾角 49.978° 49.977°
近地点辐角 260.506° 237.464°
升交点赤经 89.554° 117.375°
平近点角 99.311° 54.408°
近地点 604.606km 604.72km
远地点 638.942km 638.91km
周期 97.140分钟 97.141分钟
每日圈数 14.823954 14.823824
Detailed Information
使用方式:
暂无
2D Orbit Map
3D Orbit Map
Orbit Altitude Analysis Chart
Orbit Inclination Analysis Chart
Orbit Comprehensive Analysis Chart
View Comprehensive Chart
Conjunction Data List
Event ID Objects TCA Miss Dist (km) Collision Risk Probability Collision Risk Index (CRI) Action
CDM_260911-091902-758506-512826
PSLV DEB (27585)
2026-09-11T
09:19:07+0000
2.657 km
极远距离
1.550709E-6 低风险 0.39
CDM_260913-094104-626506-512821
2026-09-13T
09:41:33+0000
2.810 km
极远距离
8.834943E-7 极低风险 0.34
Miss Distance Evolution Trend with All Objects
Collision Probability Evolution Trend with All Objects